Torna al catalogo

TITAN 3C TRANSTAGE R/B

AttivoGEO
NORAD 3432·ROCKET BODY·🇺🇸 United States

Lanciato Sep 26, 1968 da Cape Canaveral Space Force Station

Loading…

TLE

AggiornatoSource: Space-Track

Epoca: Sep 14, 2026, 10:10 UTC

1 03432U 68081E   26257.42406449 -.00000121  00000-0  00000-0 0  9995
2 03432   2.1484  52.4775 0092571 276.6246 133.1318  1.01517065122898

Traccia TITAN 3C TRANSTAGE R/B in tempo reale con AllMySat

Download on the App Store